Regional Weather Roundup
Issued by NWS Cleveland, OH

Home | Current Version | Previous Version | Graphics & Text | Print | Product List | Glossary On
Versions: 1 2 3 4 5 6 7 8 9 10 11 12 13 14 15 16 17 18 19 20 21 22 23 24 25 26 27 28 29 30 31 32 33 34 35 36 37 38 39 40 41 42 43 44 45 46 47 48 49 50
000
ASUS41 KCLE 242000
RWRCLE
OHIO REGIONAL WEATHER ROUNDUP
NATIONAL WEATHER SERVICE WILMINGTON, OH
400 PM EDT SAT SEP 24 2016

NOTE: "FAIR" INDICATES FEW OR NO CLOUDS BELOW 12,000 FEET WITH NO
SIGNIFICANT WEATHER AND/OR OBSTRUCTIONS TO VISIBILITY.

OHZ001>008-015>018-024>027-034-035-043-044-242100-
   NORTHWEST OHIO

CITY           SKY/WX    TMP DP  RH WIND       PRES   REMARKS
DEFIANCE       PTSUNNY   73  57  57 NE10      30.19F
FINDLAY        FAIR      73  56  54 VRB6      30.17F
TOLEDO EXPRESS PTSUNNY   69  57  65 NE12      30.20F
TOLEDO EXEC    CLOUDY    70  58  65 NE13      30.21F
LIMA           FAIR      75  60  59 VRB5      30.16F
$$

OHZ009>014-019>023-028>033-038-089-242100-
   NORTHEAST OHIO

CITY           SKY/WX    TMP DP  RH WIND       PRES   REMARKS
CLE-HOPKINS    FAIR      71  52  50 N15       30.21F
CLE-LAKEFRONT  FAIR      68  53  58 NE16G23   30.19S
CUY CO. ARPT   MOSUNNY   70  55  60 NE14G21   30.20S
LORAIN-ELYRIA  FAIR      71  50  47 NE12      30.20S
ASHTABULA      FAIR      66  49  54 NE8       30.21F
AKRON-CANTON   FAIR      73  48  41 N7        30.17F
WOOSTER        NOT AVBL
MANSFIELD      FAIR      73  56  54 NE5       30.18F
YOUNGSTOWN     FAIR      70  49  47 N9        30.17F
$$

OHZ042-051>053-060>062-070>072-077>081-242100-
  SOUTHWEST OHIO

CITY           SKY/WX    TMP DP  RH WIND       PRES   REMARKS
CINC-COVINGTON FAIR      82  67  60 NE5       30.12F
CINC-LUNKEN    FAIR      83  70  64 NE6       30.12F
HAMILTON       FAIR      81  67  62 VRB3      30.13F
DAYTON         NOT AVBL
WRIGHT-PAT AFB NOT AVBL
DAYTON GENERAL FAIR      80  66  62 NE6       30.13F
WILMINGTON     PTSUNNY   81  66  60 N10       30.13F
$$

OHZ036-037-039>041-045>050-054>059-063>069-073>076-082>088-242100-
  CENTRAL AND SOUTHEAST OHIO

CITY           SKY/WX    TMP DP  RH WIND       PRES   REMARKS
COLUMBUS       PTSUNNY   77  64  64 NE8       30.13F
OSU AIRPORT    FAIR      78  61  55 N6        30.14F
BOLTON FIELD   CLOUDY    77  64  65 NE6       30.15F
RICKENBACK AFB NOT AVBL
NEWARK         FAIR      78  59  51 CALM      30.14F
MARION         FAIR      77  56  48 N7G16     30.16F
LANCASTER      PTSUNNY   81  62  52 NE7       30.14F
ZANESVILLE     FAIR      78  58  49 N8        30.14F
NEW PHILLY     FAIR      78  55  44 N8        30.15F
$$



USA.gov is the U.S. government's official web portal to all federal, state and local government web resources and services.